Time,TemperatureF,DewpointF,PressureIn,WindDirection,WindDirectionDegrees,WindSpeedMPH,WindSpeedGustMPH,Humidity,HourlyPrecipIn,Conditions,Clouds,dailyrainin,SoftwareType,DateUTC
2013-01-27 00:02:00,50.0,-99.9,-100.00,North,354,0.0,0.0,-999,-99.99,,,-99.99,,2013-01-27 06:02:00,
2013-01-27 00:11:00,50.0,-99.9,-100.00,North,354,0.0,0.0,-999,-99.99,,,-99.99,,2013-01-27 06:11:00,
2013-01-27 00:22:00,49.0,-99.9,-100.00,North,354,0.0,0.0,-999,-99.99,,,-99.99,,2013-01-27 06:22:00,
2013-01-27 00:32:00,49.0,-99.9,-100.00,North,354,0.0,0.0,-999,-99.99,,,-99.99,,2013-01-27 06:32:00,
2013-01-27 00:42:00,49.0,-99.9,-100.00,North,354,0.0,0.0,-999,-99.99,,,-99.99,,2013-01-27 06:42:00,
2013-01-27 00:52:00,49.0,-99.9,-100.00,North,354,0.0,0.0,-999,-99.99,,,-99.99,,2013-01-27 06:52:00,
2013-01-27 01:02:00,49.0,-99.9,-100.00,North,354,0.0,0.0,-999,-99.99,,,-99.99,,2013-01-27 07:02:00,
2013-01-27 01:14:00,49.0,-99.9,-100.00,North,354,0.0,0.0,-999,-99.99,,,-99.99,,2013-01-27 07:14:00,
2013-01-27 01:22:00,48.0,-99.9,-100.00,North,354,0.0,0.0,-999,-99.99,,,-99.99,,2013-01-27 07:22:00,
2013-01-27 01:32:00,47.0,-99.9,-100.00,North,354,0.0,0.0,-999,-99.99,,,-99.99,,2013-01-27 07:32:00,
2013-01-27 01:42:00,47.0,-99.9,-100.00,North,354,0.0,0.0,-999,-99.99,,,-99.99,,2013-01-27 07:42:00,
2013-01-27 01:52:00,47.0,-99.9,-100.00,North,354,0.0,0.0,-999,-99.99,,,-99.99,,2013-01-27 07:52:00,
2013-01-27 02:02:00,47.0,-99.9,-100.00,North,354,0.0,0.0,-999,-99.99,,,-99.99,,2013-01-27 08:02:00,
2013-01-27 02:12:00,47.0,-99.9,-100.00,North,354,0.0,0.0,-999,-99.99,,,-99.99,,2013-01-27 08:12:00,
2013-01-27 02:22:00,47.0,-99.9,-100.00,North,354,0.0,0.0,-999,-99.99,,,-99.99,,2013-01-27 08:22:00,
2013-01-27 02:32:00,47.0,-99.9,-100.00,North,354,0.0,0.0,-999,-99.99,,,-99.99,,2013-01-27 08:32:00,
2013-01-27 02:42:00,47.0,-99.9,-100.00,North,354,0.0,0.0,-999,-99.99,,,-99.99,,2013-01-27 08:42:00,
2013-01-27 02:52:00,46.0,-99.9,-100.00,North,354,0.0,0.0,-999,-99.99,,,-99.99,,2013-01-27 08:52:00,
2013-01-27 03:03:00,46.0,-99.9,-100.00,North,354,0.0,0.0,-999,-99.99,,,-99.99,,2013-01-27 09:03:00,
2013-01-27 03:11:00,46.0,-99.9,-100.00,North,354,0.0,0.0,-999,-99.99,,,-99.99,,2013-01-27 09:11:00,
2013-01-27 03:22:00,46.0,-99.9,-100.00,North,354,0.0,0.0,-999,-99.99,,,-99.99,,2013-01-27 09:22:00,
2013-01-27 03:32:00,46.0,-99.9,-100.00,North,354,0.0,0.0,-999,-99.99,,,-99.99,,2013-01-27 09:32:00,
2013-01-27 03:42:00,46.0,-99.9,-100.00,North,354,0.0,0.0,-999,-99.99,,,-99.99,,2013-01-27 09:42:00,
2013-01-27 03:52:00,46.0,-99.9,-100.00,North,354,0.0,0.0,-999,-99.99,,,-99.99,,2013-01-27 09:52:00,
2013-01-27 04:02:00,45.0,-99.9,-100.00,North,354,0.0,0.0,-999,-99.99,,,-99.99,,2013-01-27 10:02:00,
2013-01-27 04:11:00,45.0,-99.9,-100.00,North,354,0.0,0.0,-999,-99.99,,,-99.99,,2013-01-27 10:11:00,
2013-01-27 04:21:00,45.0,-99.9,-100.00,North,354,0.0,0.0,-999,-99.99,,,-99.99,,2013-01-27 10:21:00,
2013-01-27 04:32:00,45.0,-99.9,-100.00,North,354,0.0,0.0,-999,-99.99,,,-99.99,,2013-01-27 10:32:00,
2013-01-27 04:42:00,45.0,-99.9,-100.00,North,354,0.0,0.0,-999,-99.99,,,-99.99,,2013-01-27 10:42:00,
2013-01-27 04:52:00,44.0,-99.9,-100.00,North,354,0.0,0.0,-999,-99.99,,,-99.99,,2013-01-27 10:52:00,
2013-01-27 05:01:00,44.0,-99.9,-100.00,North,354,0.0,0.0,-999,-99.99,,,-99.99,,2013-01-27 11:01:00,
2013-01-27 05:11:00,44.0,-99.9,-100.00,North,354,0.0,0.0,-999,-99.99,,,-99.99,,2013-01-27 11:11:00,
2013-01-27 05:22:00,44.0,-99.9,-100.00,North,354,0.0,0.0,-999,-99.99,,,-99.99,,2013-01-27 11:22:00,
2013-01-27 05:32:00,44.0,-99.9,-100.00,North,354,0.0,0.0,-999,-99.99,,,-99.99,,2013-01-27 11:32:00,
2013-01-27 05:42:00,44.0,-99.9,-100.00,North,354,0.0,0.0,-999,-99.99,,,-99.99,,2013-01-27 11:42:00,
2013-01-27 05:52:00,43.0,-99.9,-100.00,North,354,0.0,0.0,-999,-99.99,,,-99.99,,2013-01-27 11:52:00,
2013-01-27 06:03:00,44.0,-99.9,-100.00,North,354,0.0,0.0,-999,-99.99,,,-99.99,,2013-01-27 12:03:00,
2013-01-27 06:12:00,44.0,-99.9,-100.00,North,354,0.0,0.0,-999,-99.99,,,-99.99,,2013-01-27 12:12:00,
2013-01-27 06:22:00,43.0,-99.9,-100.00,North,354,0.0,0.0,-999,-99.99,,,-99.99,,2013-01-27 12:22:00,
2013-01-27 06:33:00,43.0,-99.9,-100.00,North,354,0.0,0.0,-999,-99.99,,,-99.99,,2013-01-27 12:33:00,
2013-01-27 06:42:00,43.0,-99.9,-100.00,North,354,0.0,0.0,-999,-99.99,,,-99.99,,2013-01-27 12:42:00,
2013-01-27 06:53:00,42.0,-99.9,-100.00,North,354,0.0,0.0,-999,-99.99,,,-99.99,,2013-01-27 12:53:00,
2013-01-27 07:02:00,42.0,-99.9,-100.00,North,354,0.0,0.0,-999,-99.99,,,-99.99,,2013-01-27 13:02:00,
2013-01-27 07:12:00,42.0,-99.9,-100.00,North,354,0.0,0.0,-999,-99.99,,,-99.99,,2013-01-27 13:12:00,
2013-01-27 07:22:00,43.0,-99.9,-100.00,North,354,0.0,0.0,-999,-99.99,,,-99.99,,2013-01-27 13:22:00,
2013-01-27 07:32:00,43.0,-99.9,-100.00,North,354,0.0,0.0,-999,-99.99,,,-99.99,,2013-01-27 13:32:00,
2013-01-27 07:42:00,43.0,-99.9,-100.00,North,354,0.0,0.0,-999,-99.99,,,-99.99,,2013-01-27 13:42:00,
2013-01-27 07:52:00,43.0,-99.9,-100.00,North,354,0.0,0.0,-999,-99.99,,,-99.99,,2013-01-27 13:52:00,
2013-01-27 08:02:00,43.0,-99.9,-100.00,North,354,0.0,0.0,-999,-99.99,,,-99.99,,2013-01-27 14:02:00,
2013-01-27 08:12:00,43.0,-99.9,-100.00,North,354,0.0,0.0,-999,-99.99,,,-99.99,,2013-01-27 14:12:00,
2013-01-27 08:22:00,45.0,-99.9,-100.00,North,354,0.0,0.0,-999,-99.99,,,-99.99,,2013-01-27 14:22:00,
2013-01-27 08:33:00,47.0,-99.9,-100.00,North,354,0.0,0.0,-999,-99.99,,,-99.99,,2013-01-27 14:33:00,
2013-01-27 08:43:00,47.0,-99.9,-100.00,North,354,0.0,0.0,-999,-99.99,,,-99.99,,2013-01-27 14:43:00,
2013-01-27 08:53:00,47.0,-99.9,-100.00,North,354,0.0,0.0,-999,-99.99,,,-99.99,,2013-01-27 14:53:00,
2013-01-27 09:02:00,51.0,-99.9,-100.00,North,354,0.0,0.0,-999,-99.99,,,-99.99,,2013-01-27 15:02:00,
2013-01-27 09:12:00,51.0,-99.9,-100.00,North,354,0.0,0.0,-999,-99.99,,,-99.99,,2013-01-27 15:12:00,
2013-01-27 09:22:00,54.0,-99.9,-100.00,North,354,0.0,0.0,-999,-99.99,,,-99.99,,2013-01-27 15:22:00,
2013-01-27 09:33:00,56.0,-99.9,-100.00,North,354,0.0,0.0,-999,-99.99,,,-99.99,,2013-01-27 15:33:00,
2013-01-27 09:43:00,56.0,-99.9,-100.00,North,354,0.0,0.0,-999,-99.99,,,-99.99,,2013-01-27 15:43:00,
2013-01-27 09:53:00,58.0,-99.9,-100.00,North,354,0.0,0.0,-999,-99.99,,,-99.99,,2013-01-27 15:53:00,
2013-01-27 10:03:00,60.0,-99.9,-100.00,SSE,150,1.0,3.0,-999,-99.99,,,-99.99,,2013-01-27 16:03:00,
2013-01-27 10:12:00,60.0,-99.9,-100.00,SSE,150,1.0,3.0,-999,-99.99,,,-99.99,,2013-01-27 16:12:00,
2013-01-27 10:22:00,62.0,-99.9,-100.00,SSE,147,0.0,0.0,-999,-99.99,,,-99.99,,2013-01-27 16:22:00,
2013-01-27 10:33:00,64.0,-99.9,-100.00,SSE,147,0.0,0.0,-999,-99.99,,,-99.99,,2013-01-27 16:33:00,
2013-01-27 10:42:00,64.0,-99.9,-100.00,SSE,147,0.0,0.0,-999,-99.99,,,-99.99,,2013-01-27 16:42:00,
2013-01-27 10:53:00,66.0,-99.9,-100.00,SE,142,1.0,2.0,-999,-99.99,,,-99.99,,2013-01-27 16:53:00,
2013-01-27 11:02:00,66.0,-99.9,-100.00,ENE,74,0.0,4.0,-999,-99.99,,,-99.99,,2013-01-27 17:02:00,
2013-01-27 11:13:00,66.0,-99.9,-100.00,ENE,74,0.0,4.0,-999,-99.99,,,-99.99,,2013-01-27 17:13:00,
2013-01-27 11:22:00,66.0,-99.9,-100.00,East,98,0.0,4.0,-999,-99.99,,,-99.99,,2013-01-27 17:22:00,
2013-01-27 11:33:00,67.0,-99.9,-100.00,SSW,206,1.0,5.0,-999,-99.99,,,-99.99,,2013-01-27 17:33:00,
2013-01-27 11:42:00,67.0,-99.9,-100.00,SSW,206,1.0,5.0,-999,-99.99,,,-99.99,,2013-01-27 17:42:00,
2013-01-27 11:53:00,68.0,-99.9,-100.00,ENE,61,1.0,5.0,-999,-99.99,,,-99.99,,2013-01-27 17:53:00,
2013-01-27 12:03:00,69.0,-99.9,-100.00,SSW,198,0.0,4.0,-999,-99.99,,,-99.99,,2013-01-27 18:03:00,
2013-01-27 12:12:00,69.0,-99.9,-100.00,SSW,198,0.0,4.0,-999,-99.99,,,-99.99,,2013-01-27 18:12:00,
2013-01-27 12:23:00,70.0,-99.9,-100.00,SW,232,2.0,4.0,-999,-99.99,,,-99.99,,2013-01-27 18:23:00,
2013-01-27 12:33:00,70.0,-99.9,-100.00,ESE,112,0.0,3.0,-999,-99.99,,,-99.99,,2013-01-27 18:33:00,
2013-01-27 12:42:00,70.0,-99.9,-100.00,ESE,112,0.0,3.0,-999,-99.99,,,-99.99,,2013-01-27 18:42:00,
2013-01-27 12:53:00,69.0,-99.9,-100.00,SW,234,0.0,2.0,-999,-99.99,,,-99.99,,2013-01-27 18:53:00,
2013-01-27 13:02:00,70.0,-99.9,-100.00,SSE,163,1.0,4.0,-999,-99.99,,,-99.99,,2013-01-27 19:02:00,
2013-01-27 13:12:00,70.0,-99.9,-100.00,SSE,163,1.0,4.0,-999,-99.99,,,-99.99,,2013-01-27 19:12:00,
2013-01-27 13:22:00,68.0,-99.9,-100.00,South,172,1.0,2.0,-999,-99.99,,,-99.99,,2013-01-27 19:22:00,
2013-01-27 13:33:00,69.0,-99.9,-100.00,SSE,160,0.0,2.0,-999,-99.99,,,-99.99,,2013-01-27 19:33:00,
2013-01-27 13:42:00,69.0,-99.9,-100.00,SSE,160,0.0,2.0,-999,-99.99,,,-99.99,,2013-01-27 19:42:00,
2013-01-27 13:52:00,69.0,-99.9,-100.00,WSW,237,1.0,3.0,-999,-99.99,,,-99.99,,2013-01-27 19:52:00,
2013-01-27 14:03:00,70.0,-99.9,-100.00,South,185,3.0,3.0,-999,-99.99,,,-99.99,,2013-01-27 20:03:00,
2013-01-27 14:12:00,70.0,-99.9,-100.00,South,185,3.0,3.0,-999,-99.99,,,-99.99,,2013-01-27 20:12:00,
2013-01-27 14:22:00,69.0,-99.9,-100.00,SSW,199,1.0,3.0,-999,-99.99,,,-99.99,,2013-01-27 20:22:00,
2013-01-27 14:33:00,70.0,-99.9,-100.00,SSE,147,0.0,3.0,-999,-99.99,,,-99.99,,2013-01-27 20:33:00,
2013-01-27 14:43:00,70.0,-99.9,-100.00,SSE,147,0.0,3.0,-999,-99.99,,,-99.99,,2013-01-27 20:43:00,
2013-01-27 14:52:00,70.0,-99.9,-100.00,SSW,196,3.0,3.0,-999,-99.99,,,-99.99,,2013-01-27 20:52:00,
2013-01-27 15:02:00,70.0,-99.9,-100.00,South,174,0.0,2.0,-999,-99.99,,,-99.99,,2013-01-27 21:02:00,
2013-01-27 15:12:00,70.0,-99.9,-100.00,South,174,0.0,2.0,-999,-99.99,,,-99.99,,2013-01-27 21:12:00,
2013-01-27 15:23:00,71.0,-99.9,-100.00,SE,127,0.0,2.0,-999,-99.99,,,-99.99,,2013-01-27 21:23:00,
2013-01-27 15:33:00,71.0,-99.9,-100.00,East,88,1.0,0.0,-999,-99.99,,,-99.99,,2013-01-27 21:33:00,
2013-01-27 15:43:00,71.0,-99.9,-100.00,East,88,1.0,0.0,-999,-99.99,,,-99.99,,2013-01-27 21:43:00,
2013-01-27 15:52:00,71.0,-99.9,-100.00,South,180,1.0,1.0,-999,-99.99,,,-99.99,,2013-01-27 21:52:00,
2013-01-27 16:03:00,70.0,-99.9,-100.00,SE,142,0.0,2.0,-999,-99.99,,,-99.99,,2013-01-27 22:03:00,
2013-01-27 16:12:00,70.0,-99.9,-100.00,SE,142,0.0,2.0,-999,-99.99,,,-99.99,,2013-01-27 22:12:00,
2013-01-27 16:22:00,70.0,-99.9,-100.00,SSE,154,0.0,3.0,-999,-99.99,,,-99.99,,2013-01-27 22:22:00,
2013-01-27 16:33:00,69.0,-99.9,-100.00,South,172,0.0,2.0,-999,-99.99,,,-99.99,,2013-01-27 22:33:00,
2013-01-27 16:43:00,69.0,-99.9,-100.00,South,172,0.0,2.0,-999,-99.99,,,-99.99,,2013-01-27 22:43:00,
2013-01-27 16:52:00,68.0,-99.9,-100.00,SSE,149,0.0,0.0,-999,-99.99,,,-99.99,,2013-01-27 22:52:00,
2013-01-27 17:02:00,68.0,-99.9,-100.00,South,172,0.0,0.0,-999,-99.99,,,-99.99,,2013-01-27 23:02:00,
2013-01-27 17:12:00,68.0,-99.9,-100.00,South,172,0.0,0.0,-999,-99.99,,,-99.99,,2013-01-27 23:12:00,
2013-01-27 17:22:00,67.0,-99.9,-100.00,South,172,0.0,0.0,-999,-99.99,,,-99.99,,2013-01-27 23:22:00,
2013-01-27 17:32:00,67.0,-99.9,-100.00,South,172,0.0,0.0,-999,-99.99,,,-99.99,,2013-01-27 23:32:00,
2013-01-27 17:42:00,67.0,-99.9,-100.00,South,172,0.0,0.0,-999,-99.99,,,-99.99,,2013-01-27 23:42:00,
2013-01-27 17:53:00,66.0,-99.9,-100.00,South,172,0.0,0.0,-999,-99.99,,,-99.99,,2013-01-27 23:53:00,
2013-01-27 18:02:00,64.0,-99.9,-100.00,South,178,0.0,0.0,-999,-99.99,,,-99.99,,2013-01-28 00:02:00,
2013-01-27 18:12:00,64.0,-99.9,-100.00,South,178,0.0,0.0,-999,-99.99,,,-99.99,,2013-01-28 00:12:00,
2013-01-27 18:22:00,63.0,-99.9,-100.00,SSE,158,0.0,0.0,-999,-99.99,,,-99.99,,2013-01-28 00:22:00,
2013-01-27 18:33:00,63.0,-99.9,-100.00,SSE,158,0.0,0.0,-999,-99.99,,,-99.99,,2013-01-28 00:33:00,
2013-01-27 18:42:00,63.0,-99.9,-100.00,SSE,158,0.0,0.0,-999,-99.99,,,-99.99,,2013-01-28 00:42:00,
2013-01-27 18:52:00,62.0,-99.9,-100.00,SSE,158,0.0,0.0,-999,-99.99,,,-99.99,,2013-01-28 00:52:00,
2013-01-27 19:02:00,62.0,-99.9,-100.00,SSE,158,0.0,0.0,-999,-99.99,,,-99.99,,2013-01-28 01:02:00,
2013-01-27 19:12:00,62.0,-99.9,-100.00,SSE,158,0.0,0.0,-999,-99.99,,,-99.99,,2013-01-28 01:12:00,
2013-01-27 19:22:00,61.0,-99.9,-100.00,SSE,158,0.0,0.0,-999,-99.99,,,-99.99,,2013-01-28 01:22:00,
2013-01-27 19:33:00,60.0,-99.9,-100.00,SSE,158,0.0,0.0,-999,-99.99,,,-99.99,,2013-01-28 01:33:00,
2013-01-27 19:43:00,60.0,-99.9,-100.00,SSE,158,0.0,0.0,-999,-99.99,,,-99.99,,2013-01-28 01:43:00,
2013-01-27 19:52:00,58.0,-99.9,-100.00,SSE,158,0.0,0.0,-999,-99.99,,,-99.99,,2013-01-28 01:52:00,
2013-01-27 20:02:00,58.0,-99.9,-100.00,SSE,158,0.0,0.0,-999,-99.99,,,-99.99,,2013-01-28 02:02:00,
2013-01-27 20:12:00,58.0,-99.9,-100.00,SSE,158,0.0,0.0,-999,-99.99,,,-99.99,,2013-01-28 02:12:00,
2013-01-27 20:22:00,57.0,-99.9,-100.00,SSE,158,0.0,0.0,-999,-99.99,,,-99.99,,2013-01-28 02:22:00,
2013-01-27 20:32:00,56.0,-99.9,-100.00,SSE,158,0.0,0.0,-999,-99.99,,,-99.99,,2013-01-28 02:32:00,
2013-01-27 20:42:00,56.0,-99.9,-100.00,SSE,158,0.0,0.0,-999,-99.99,,,-99.99,,2013-01-28 02:42:00,
2013-01-27 20:53:00,55.0,-99.9,-100.00,SSE,158,0.0,0.0,-999,-99.99,,,-99.99,,2013-01-28 02:53:00,
2013-01-27 21:02:00,54.0,-99.9,-100.00,SSE,158,0.0,0.0,-999,-99.99,,,-99.99,,2013-01-28 03:02:00,
2013-01-27 21:12:00,54.0,-99.9,-100.00,SSE,158,0.0,0.0,-999,-99.99,,,-99.99,,2013-01-28 03:12:00,
2013-01-27 21:22:00,54.0,-99.9,-100.00,SSE,158,0.0,0.0,-999,-99.99,,,-99.99,,2013-01-28 03:22:00,
2013-01-27 21:32:00,53.0,-99.9,-100.00,SSE,158,0.0,0.0,-999,-99.99,,,-99.99,,2013-01-28 03:32:00,
2013-01-27 21:42:00,53.0,-99.9,-100.00,SSE,158,0.0,0.0,-999,-99.99,,,-99.99,,2013-01-28 03:42:00,
2013-01-27 21:53:00,53.0,-99.9,-100.00,SSE,158,0.0,0.0,-999,-99.99,,,-99.99,,2013-01-28 03:53:00,
2013-01-27 22:02:00,53.0,-99.9,-100.00,SSE,158,0.0,0.0,-999,-99.99,,,-99.99,,2013-01-28 04:02:00,
2013-01-27 22:12:00,53.0,-99.9,-100.00,SSE,158,0.0,0.0,-999,-99.99,,,-99.99,,2013-01-28 04:12:00,
2013-01-27 22:22:00,53.0,-99.9,-100.00,SSE,158,0.0,0.0,-999,-99.99,,,-99.99,,2013-01-28 04:22:00,
2013-01-27 22:32:00,52.0,-99.9,-100.00,SSE,158,0.0,0.0,-999,-99.99,,,-99.99,,2013-01-28 04:32:00,
2013-01-27 22:42:00,52.0,-99.9,-100.00,SSE,158,0.0,0.0,-999,-99.99,,,-99.99,,2013-01-28 04:42:00,
2013-01-27 22:52:00,52.0,-99.9,-100.00,SSE,158,0.0,0.0,-999,-99.99,,,-99.99,,2013-01-28 04:52:00,
2013-01-27 23:04:00,52.0,-99.9,-100.00,SSE,158,0.0,0.0,-999,-99.99,,,-99.99,,2013-01-28 05:04:00,
2013-01-27 23:12:00,52.0,-99.9,-100.00,SSE,158,0.0,0.0,-999,-99.99,,,-99.99,,2013-01-28 05:12:00,
2013-01-27 23:22:00,51.0,-99.9,-100.00,SSE,158,0.0,0.0,-999,-99.99,,,-99.99,,2013-01-28 05:22:00,
2013-01-27 23:32:00,51.0,-99.9,-100.00,SSE,158,0.0,0.0,-999,-99.99,,,-99.99,,2013-01-28 05:32:00,
2013-01-27 23:42:00,51.0,-99.9,-100.00,SSE,158,0.0,0.0,-999,-99.99,,,-99.99,,2013-01-28 05:42:00,
2013-01-27 23:52:00,51.0,-99.9,-100.00,SSE,158,0.0,0.0,-999,-99.99,,,-99.99,,2013-01-28 05:52:00,